Regional Weather Roundup
Issued by NWS

Home | Current Version | Previous Version | Graphics & Text | Print | Product List | Glossary On
Versions: 1 2 3 4 5 6 7 8 9 10 11 12 13 14 15 16 17 18 19 20 21 22 23 24 25 26 27
000
ASUS45 KCYS 162110
RWRWY

WYOMING REGIONAL WEATHER ROUNDUP
NATIONAL WEATHER SERVICE CHEYENNE WY
200 PM MST SAT DEC 16 2017

NOTE:  "FAIR" INDICATES FEW OR NO CLOUDS BELOW 12,000 FEET
WITH NO SIGNIFICANT WEATHER AND/OR OBSTRUCTIONS TO VISIBILITY.

WYZ001-162200-
YELLOWSTONE NATIONAL PARK

CITY           SKY/WX    TMP DP  RH WIND       PRES   REMARKS
LK YELLOWSTONE   N/A     23  20  88 CALM      29.84S
W YELLOWSTONE  NOT AVBL

$$
WYZ002>013-054>058-071-098>099-162200-
NORTHERN WYOMING

CITY           SKY/WX    TMP DP  RH WIND       PRES   REMARKS
JACKSON        LGT SNOW  29  23  78 NE8       29.83S WCI  21
CODY           FLURRIES  30  24  78 N9        29.88S WCI  22
GREYBULL       LGT SNOW  32  32 100 NW3       29.86F VSB 3/4
WORLAND        LGT SNOW  33  32  96 CALM      29.86R VSB 3/4
SHERIDAN       LGT SNOW  31  29  92 CALM      29.95S FOG
BUFFALO        LGT SNOW  30  24  78 N9        29.92S VSB 1   WCI  22
GILLETTE       CLOUDY    31  26  82 NE10      29.91S WCI  22
HULETT         CLOUDY    32  27  80 N8        29.93S WCI  25
NEWCASTLE      LGT SNOW  30  30 100 S9        29.91R WCI  22

$$
WYZ014>020-022>026-101>103-162200-
CENTRAL WYOMING

CITY           SKY/WX    TMP DP  RH WIND       PRES   REMARKS
BIG PINEY      CLOUDY    33  26  75 NE6       29.77F WCI  28
PINEDALE       FLURRIES  30  27  86 NW6       29.79S WCI  24
DUBOIS         LGT SNOW  27  23  86 SE9       29.78F WCI  17
LANDER         FLURRIES  30  27  88 NW12      29.81S WCI  20
RIVERTON       CLOUDY    31  28  89 NE9       29.81S WCI  23
CASPER         SNOW      30  29  96 NE10      29.83F VSB 1/2 WCI  21
DOUGLAS        PTSUNNY   32  29  88 NE14      29.85F WCI  22

$$
WYZ021-027>030-104>119-162200-
SOUTHERN WYOMING

CITY           SKY/WX    TMP DP  RH WIND       PRES   REMARKS
EVANSTON       FLURRIES  30  26  85 NW8       29.78F WCI  22
FORT BRIDGER   CLOUDY    35  26  71 NW6       29.80S WCI  29
ROCK SPRINGS   FAIR      35  24  64 NW7       29.75F WCI  29
DIXON          FAIR      36  16  43 CALM      29.78F
RAWLINS        CLOUDY    37  22  54 SE3       29.76F
SARATOGA       FAIR      32  19  59 NW6       29.77F WCI  26
LARAMIE        FAIR      33  19  56 SE3       29.77S
CHEYENNE       FAIR      40  19  43 E12       29.80F WCI  33
TORRINGTON     FAIR      38  28  67 NE10      29.86S WCI  31
PINE BLUFFS    FAIR      41  19  42 MISG      29.82S

$$




USA.gov is the U.S. government's official web portal to all federal, state and local government web resources and services.